Home > Weather > Peoria > Past weeks

Flag for USA Past Weather in Peoria, Illinois, USA — Yesterday and Last 2 Weeks

Now
73 °F

Clear.


Feels Like: 71 °F
Forecast: 68 / 86 °F
Wind: No wind

Location: Greater Peoria Regional Airport

Current Time: Jul 25, 2016 at 11:48:41 PM

Latest Report: Jul 25, 2016 at 10:54 PM


Visibility: 10 mi

Pressure: 30.01 "Hg

Humidity: 90%

Dew Point: 70 °F

Location of PeoriaLocation

Past Weather in Peoria — Graph

°F

Peoria Temperature Yesterday

Maximum temperature yesterday: 92 °F (at 1:54 PM)
Minimum temperature yesterday: 77 °F (at 5:54 AM)
Average temperature yesterday: 85 °F

High & Low Weather Summary for the Past Weeks

 TemperatureHumidityPressure
High93 °F (Jul 21, 4:54 PM)100% (Jul 20, 4:54 AM)30.22 "Hg (Jul 20, 4:54 AM)
Low63 °F (Jul 16, 5:54 AM)50% (Jul 14, 1:54 PM)29.79 "Hg (Jul 13, 2:54 PM)
Average79 °F79%30.00 "Hg
* Reported Jul 10 10:54 PM — Jul 25 10:54 PM, Peoria, Weather by CustomWeather, © 2016

Note: Actual official high and low records may vary slightly from our data, if they occured in-between our weather recording intervals... More about our weather records

Advertising

Peoria Weather History for the Previous 24 Hours

Scroll right to see more
 ConditionsComfort  
Time TempWeatherWind HumidityBarometerVisibility
10:54 PM
Mon, Jul 25
73 °FClear.No wind90%30.01 "Hg10 mi
9:54 PM74 °FClear.No wind91%30.01 "Hg10 mi
8:54 PM77 °FSunny.No wind82%30.01 "Hg10 mi
7:54 PM80 °FSunny.No wind74%29.99 "Hg10 mi
6:54 PM82 °FSunny.5 mph70%29.97 "Hg10 mi
5:54 PM84 °FSunny.5 mph63%29.98 "Hg10 mi
4:54 PM84 °FPassing clouds.No wind63%29.98 "Hg10 mi
3:54 PM83 °FSunny.6 mph63%29.98 "Hg10 mi
2:54 PM86 °FPassing clouds.7 mph57%29.98 "Hg10 mi
1:54 PM87 °FPassing clouds.3 mph57%30.00 "Hg10 mi
12:54 PM84 °FCloudy.No wind67%30.02 "Hg10 mi
11:54 AM81 °FScattered clouds.7 mph77%30.03 "Hg10 mi
10:54 AM81 °FSunny.No wind72%30.02 "Hg10 mi
9:54 AM80 °FSunny.8 mph74%29.98 "Hg10 mi
8:54 AM77 °FSunny.8 mph82%29.97 "Hg10 mi
7:54 AM77 °FPassing clouds.7 mph90%29.98 "Hg10 mi
6:54 AM75 °FOvercast.6 mph96%29.98 "Hg10 mi
5:54 AM75 °FPassing clouds.8 mph94%29.99 "Hg10 mi
4:54 AM74 °FClear.7 mph94%29.98 "Hg10 mi
3:54 AM74 °FPassing clouds.5 mph94%29.97 "Hg10 mi
2:54 AM75 °FOvercast.7 mph90%29.99 "Hg10 mi
1:54 AM76 °FPassing clouds.6 mph91%29.97 "Hg10 mi
12:54 AM76 °FLight rain. Passing clouds.7 mph94%29.96 "Hg10 mi
11:54 PM
Sun, Jul 24
79 °FLight rain. Passing clouds.12 mph90%29.93 "Hg10 mi
Weather by CustomWeather, © 2016

See weather overviewHow to use our weather pages